Mankato, MN

11:47 AM CDT on August 23, 2019 (GMT -0500)
Mankato Regional

Weather History for KMKT - May, 2019

Change the Weather History Date:

Tuesday, May 28, 2019

  Actual Average Record
Temperature  
Mean Temperature 54 °F -  
Max Temperature 61 °F 67 °F 100 °F (2018)
Min Temperature 46 °F 50 °F 46 °F (2001)
Degree Days  
Heating Degree Days 12    
Growing Degree Days 4 (Base 50)    
Moisture  
Dew Point 50 °F    
Average Humidity 88    
Maximum Humidity 97    
Minimum Humidity 75    
Precipitation  
Precipitation 0.00 in - - ()
Sea Level Pressure  
Sea Level Pressure 29.83 in    
Wind  
Wind Speed 10 mph (NE)    
Max Wind Speed 14 mph    
Max Gust Speed -    
Visibility 10 miles    
Events      
Averages and records for this station are not official NWS values.
T = Trace of Precipitation, MM = Missing Value Source: NWS Daily Summary

Daily Weather History Graph

Daily Weather History Graph

Search for Another Location

Airport or City:

Astronomy

May. 28, 2019 Rise Set
Actual Time 5:37 AM CDT 8:48 PM CDT
Civil Twilight 5:02 AM CDT 9:24 PM CDT
Nautical Twilight 4:17 AM CDT 10:09 PM CDT
Astronomical Twilight 3:22 AM CDT 11:05 PM CDT
Moon 3:06 AM CDT (5/28) 2:43 PM CDT (5/28)
Length of Visible Light 16h 21m
Length of Day
15h 11m
Waning Crescent, 31% of the Moon is Illuminated
May 28
Waning Crescent
Jun 3
New
Jun 10
First Quarter
Jun 17
Full
Jun 25
Last Quarter

Hourly Weather History & Observations

Time (CDT) Temp. Dew Point Humidity Pressure Visibility Wind Dir Wind Speed Gust Speed Precip Events Conditions
12:56 AM 48.9 °F 48.0 °F 97% 29.86 in 10.0 mi NNE 11.5 mph - N/A   Overcast
1:56 AM 48.9 °F 46.9 °F 93% 29.86 in 10.0 mi North 8.1 mph - N/A   Overcast
2:56 AM 48.0 °F 46.0 °F 93% 29.86 in 10.0 mi North 10.4 mph - N/A   Overcast
3:56 AM 48.0 °F 46.0 °F 93% 29.86 in 10.0 mi North 13.8 mph - N/A   Overcast
4:56 AM 46.9 °F 46.0 °F 97% 29.86 in 10.0 mi North 9.2 mph - N/A   Overcast
5:56 AM 46.9 °F 46.0 °F 97% 29.86 in 10.0 mi NNE 12.7 mph - N/A   Overcast
6:56 AM 46.9 °F 46.0 °F 97% 29.87 in 10.0 mi NNE 13.8 mph - N/A   Overcast
7:56 AM 46.9 °F 46.0 °F 97% 29.86 in 10.0 mi North 12.7 mph - N/A   Overcast
8:56 AM 48.0 °F 46.0 °F 93% 29.88 in 10.0 mi NNE 9.2 mph - N/A   Overcast
9:56 AM 48.9 °F 48.0 °F 97% 29.86 in 10.0 mi NE 11.5 mph - N/A   Overcast
10:14 AM 50.0 °F 46.4 °F 87% 29.84 in 10.0 mi NE 11.5 mph - N/A   Overcast
10:56 AM 51.1 °F 48.9 °F 92% 29.86 in 10.0 mi NNE 8.1 mph - N/A   Overcast
11:56 AM 53.1 °F 50.0 °F 89% 29.85 in 10.0 mi ENE 10.4 mph - N/A   Overcast
12:08 PM 53.6 °F 50.0 °F 88% 29.82 in 10.0 mi NE 12.7 mph - N/A   Overcast
12:56 PM 55.9 °F 51.1 °F 84% 29.83 in 10.0 mi ENE 10.4 mph - N/A   Overcast
1:56 PM 57.0 °F 52.0 °F 83% 29.82 in 10.0 mi NE 10.4 mph - N/A   Overcast
2:56 PM 59.0 °F 53.1 °F 81% 29.84 in 10.0 mi East 9.2 mph - N/A   Overcast
3:15 PM 59.0 °F 53.6 °F 82% 29.83 in 10.0 mi East 10.4 mph - N/A   Overcast
3:56 PM 60.1 °F 52.0 °F 75% 29.84 in 10.0 mi ESE 10.4 mph - N/A   Overcast
4:56 PM 60.1 °F 52.0 °F 75% 29.82 in 10.0 mi ENE 5.8 mph - N/A   Overcast
5:56 PM 61.0 °F 53.1 °F 75% 29.78 in 10.0 mi ENE 9.2 mph - N/A   Overcast
6:30 PM 60.8 °F 53.6 °F 77% 29.77 in 10.0 mi ENE 9.2 mph - N/A   Scattered Clouds
6:56 PM 61.0 °F 54.0 °F 78% 29.77 in 10.0 mi ENE 10.4 mph - N/A   Clear
7:56 PM 61.0 °F 55.0 °F 81% 29.75 in 10.0 mi ENE 6.9 mph - N/A   Clear
8:56 PM 60.1 °F 55.0 °F 83% 29.78 in 10.0 mi ENE 5.8 mph - N/A   Clear
9:56 PM 57.9 °F 55.0 °F 90% 29.80 in 10.0 mi East 4.6 mph - N/A   Clear
10:56 PM 55.9 °F 53.1 °F 90% 29.79 in 10.0 mi East 4.6 mph - N/A   Clear
11:56 PM 55.9 °F 53.1 °F 90% 29.79 in 10.0 mi East 3.5 mph - N/A   Clear